Погода в Казаричах

Россия / Брянская область     52°56′41″N   32°07′32″E
темп.,
°C
ветер,
м/с
пор.,
м/с
влажн.,
%
обл.,
%
осадки,
мм/ч
давл.,
гПа
погр.,
м
16 мая, вс
вс1600:00+11ююз36925 0.0 101091
03:00+10ююз36945 0.0 101199
06:00+10ююз369513 0.0 1011137
09:00+16ююз34805 0.0 1012477
12:00+19ююз346328 0.0 10121307
15:00+20ююз3458100 0.1 10121778
18:00+20ююв2365100 0.1 1012651
21:00+17вюв3470100 0.1 101253
17 мая, пн
пн1700:00+14юв3383100 0.0 101227
03:00+13в3487100 0.0 101148
06:00+13в3789100 0.0 1011147
09:00+16всв498397 0.0 1009310
12:00+22в6867100 0.1 1007866
15:00+25вюв6115778 0.1 10041697
18:00+23вюв611655 0.0 1003972
21:00+18вюв4108973 0.0 1003203
18 мая, вт
вт1800:00+18юв715899 1.8 1002451
03:00+16вюв51196100 1.8 1001309
06:00+16юв81390100 0.1 1001855
09:00+15юв81392100 0.1 1002743
12:00+16ююв71191100 0.1 1004748
15:00+20ю6868100 0.3 10041307
18:00+20юв697796 0.4 10041034
21:00+15вюв3891100 1.9 1004156
19 мая, ср
ср1900:00+14вюв3595100 0.0 1003106
03:00+13в3495100 0.0 100273
06:00+13ююв2599100 4.1 1001229
09:00+14ю3797100 6.3 1001408
12:00+15ююв589070 2.2 1001630
15:00+16ю5883100 3.3 1001675
18:00+17ююв578141 0.8 1001805
21:00+13ю4895100 2.0 1001258
20 мая, чт
чт2000:00+11ю369895 1.2 1002211
03:00+11ю3598100 1.4 1002389
06:00+10з61095100 0.6 1002685
09:00+9з61095100 1.7 1004775
12:00+10зюз81292100 0.1 1006881
15:00+11з6118799 0.3 1009862
18:00+14з587893 0.2 10091046
21:00+11зюз3391100 0.3 101134